Regional Weather Roundup
Issued by NWS

Home | Current Version | Previous Version | Graphics & Text | Print | Product List | Glossary On
Versions: 1 2 3 4 5 6 7 8 9 10 11 12 13 14 15 16 17 18 19 20 21 22 23 24 25 26 27 28 29 30 31 32 33 34 35 36 37 38 39 40 41 42 43 44 45 46 47 48 49 50
000
ASUS45 KBOU 271607
RWRCO

WEATHER ROUNDUP FOR COLORADO
NATIONAL WEATHER SERVICE DENVER/BOULDER CO
900 AM MST THU NOV 27 2014

NOTE: "FAIR" INDICATES FEW OR NO CLOUDS BELOW 12000 FEET WITH NO
SIGNIFICANT WEATHER AND/OR OBSTRUCTIONS TO VISIBILITY.

COZ001>005-013-030-031-271700-
...NORTHWEST COLORADO...

CITY           SKY/WX    TMP DP  RH WIND       PRES   REMARKS
CRAIG          PTSUNNY   31  27  85 SW5       30.40S WCI  26
HAYDEN         MOSUNNY   30  21  69 SE12      30.40S WCI  21
MEEKER         PTSUNNY   32  25  75 CALM      30.43S
MOUNT WERNER   NOT AVBL
STEAMBOAT SPGS MOSUNNY   23  21  91 CALM      30.42S
WALDEN         PTSUNNY   36  18  48 N7        30.37R
$$

COZ006>008-011-271700-
...WEST CENTRAL VALLEYS...

CITY           SKY/WX    TMP DP  RH WIND       PRES   REMARKS
GRAND JUNCTION SUNNY     34  26  72 CALM      30.47F
MONTROSE       MOSUNNY   34  25  69 SE3       30.52S
EAGLE          MOSUNNY   30  28  93 CALM      30.51F
RIFLE          MOSUNNY   27  24  89 CALM      30.50F
DELTA          MOSUNNY   33  25  75 CALM      30.51F
NUCLA          MOSUNNY   32  25  74 CALM      30.54F
$$

COZ017>023-064>068-271700-
...SOUTHWEST COLORADO...

CITY           SKY/WX    TMP DP  RH WIND       PRES   REMARKS
DURANGO        SUNNY     33  23  66 NE6       30.50S WCI  28
CORTEZ         SUNNY     34  23  64 NE6       30.50R WCI  29
PAGOSA SPRINGS SUNNY     35  19  52 CALM      30.52R
TELLURIDE      SUNNY     31  17  55 E6        30.57S WCI  26
WOLF CREEK PAS SUNNY     36  -6  17 MISG      30.63R
$$

COZ009-010-012-014-032>034-037-058>063-271700-
...CENTRAL COLORADO...

CITY           SKY/WX    TMP DP  RH WIND       PRES   REMARKS
ASPEN          SUNNY     27  20  75 S3        30.49S
BUENA VISTA    SUNNY     32  20  61 W3        30.46S
COPPER MTN     SUNNY     27  10  50 SW6       30.54S WCI  20
BERTHOUD PASS  NOT AVBL
COTTONWOOD PAS SUNNY     41  12  30 SE3       30.48S
GUNNISON       SUNNY     18  12  79 CALM      30.61S
KREMMLING      SUNNY     32  23  69 NE6       30.46F WCI  26
LEADVILLE      SUNNY     31   9  39 N6        30.48R WCI  25
SALIDA         SUNNY     36  19  50 N12G22    30.51S
SUNLIGHT       SUNNY     28  23  80 SW5       30.54F WCI  23
WILKERSON PASS PTSUNNY   32   1  27 W7        30.49F WCI  26
$$

COZ069>075-271700-
...SAN LUIS VALLEY/SANGRE DE CRISTO MOUNTAINS...

CITY           SKY/WX    TMP DP  RH WIND       PRES   REMARKS
ALAMOSA        MOSUNNY   30  18  60 CALM      30.53R
LA VETA PASS   PTSUNNY   34  14  44 S14G23    30.51R WCI  24
SAGUACHE       NOT AVBL
$$

COZ035-036-038>040-271700-
...NORTHERN COLORADO FRONT RANGE...

CITY           SKY/WX    TMP DP  RH WIND       PRES   REMARKS
DENVER INTL AP CLOUDY    50  16  25 S6        30.22R
DMNS CITY PARK   N/A     47  17  31 S9        30.21F
AURORA         PTSUNNY   47  17  29 SW10      30.24S
FRONT RANGE AP PTSUNNY   52  18  25 SW12      30.23R
ERIE MUNI ARPT CLOUDY    52  18  26 CALM      30.20R
BOULDER MUN AP CLOUDY    52  18  25 W6        30.20S
CENTENNIAL     CLOUDY    53  15  22 S5        30.25R
BROOMFIELD     NOT AVBL
FORT COLLINS   PTSUNNY   28  27  93 CALM      30.20S
LONGMONT       PTSUNNY   59  15  18 SW10G20   30.21R
$$

COZ041-046-047-076>085-087-088-271700-
...PIKES PEAK/PALMER DIVIDE AND SOUTHERN FOOTHILLS...

CITY           SKY/WX    TMP DP  RH WIND       PRES   REMARKS
COLO. SPRINGS  CLOUDY    50  25  37 NE5       30.29R
A. F. ACADEMY  CLOUDY    54   5  13 W8        30.29R
ELLICOTT       NOT AVBL
FALCON         NOT AVBL
FORT CARSON    CLOUDY    40  27  59 N5        30.27R
LIMON          PTSUNNY   37  27  67 CALM      30.26R
MONUMENT HILL  CLOUDY    50  10  20 SW9       30.30R
TRINIDAD       PTSUNNY   48  21  34 W14       30.32F
$$

COZ042>045-048>051-090-091-271700-
...NORTHEAST COLORADO...

CITY           SKY/WX    TMP DP  RH WIND       PRES   REMARKS
GREELEY ARPT   CLOUDY    25  18  74 CALM      30.21F
AKRON          PTSUNNY   44  27  51 SW9       30.19R
BURLINGTON     SUNNY     43  27  53 SW13      30.23F
WRAY           MOSUNNY   35  30  80 SW6       30.20F WCI  30
STERLING       PTSUNNY   30  28  93 S7        30.19S WCI  23
HOLYOKE        MOSUNNY   34  30  86 SW6       30.18F WCI  29
FORT MORGAN    PTSUNNY   31  27  86 W7        30.19F WCI  24
$$

COZ086-089-092>099-271700-
...SOUTHEAST COLORADO...

CITY           SKY/WX    TMP DP  RH WIND       PRES   REMARKS
PUEBLO         CLOUDY    29  23  78 CALM      30.28S
LA JUNTA       MOSUNNY   32  25  75 W6        30.28F WCI  26
LAMAR          SUNNY     33  22  63 W7        30.29F WCI  27
SPRINGFIELD      N/A     46  30  53 CALM      30.29F
$$


USA.gov is the U.S. government's official web portal to all federal, state and local government web resources and services.